Leonardtown, MD

7:37 AM EDT on April 23, 2017 (GMT -0400)
Leonardtown

Weather History for K2W6 - January, 2013

Change the Weather History Date:

Thursday, January 24, 2013

  Actual Average (KNHK) Record (KNHK)
Temperature  
Mean Temperature 21 °F -  
Max Temperature 28 °F 43 °F 64 °F (2002)
Min Temperature 14 °F 25 °F 10 °F (2011)
Degree Days  
Heating Degree Days 44    
Moisture  
Dew Point 9 °F    
Average Humidity 61    
Maximum Humidity 93    
Minimum Humidity 31    
Precipitation  
Precipitation 0.00 in - - ()
Sea Level Pressure  
Sea Level Pressure 30.32 in    
Wind  
Wind Speed 5 mph (NNW)    
Max Wind Speed 12 mph    
Max Gust Speed 23 mph    
Visibility 7 miles    
Events      
Averages and records for this station are not official NWS values.
T = Trace of Precipitation, MM = Missing Value Source: NWS Daily Summary

Daily Weather History Graph

Daily Weather History Graph

Search for Another Location

Airport or City:

Trip Planner

Search our weather history database for the weather conditions in past years. The results will help you decide how hot, cold, wet, or windy it might be!

Date:

Astronomy

Jan. 24, 2013 Rise Set
Actual Time 7:17 AM EST 5:19 PM EST
Civil Twilight 6:48 AM EST 5:48 PM EST
Nautical Twilight 6:16 AM EST 6:20 PM EST
Astronomical Twilight 5:45 AM EST 6:51 PM EST
Moon 3:20 PM EST (1/24) 5:12 AM EST (1/24)
Length of Visible Light 10h 59m
Length of Day
10h 02m
Waxing Gibbous, 94% of the Moon is Illuminated
Jan 24
Waxing Gibbous
Jan 26
Full
Feb 3
Last Quarter
Feb 10
New
Feb 17
First Quarter

Hourly Weather History & Observations

Time (EST) Temp. Windchill Dew Point Humidity Pressure Visibility Wind Dir Wind Speed Gust Speed Precip Events Conditions
12:20 AM 26.6 °F 20.0 °F 17.6 °F 69% 30.15 in 5.0 mi ESE 5.8 mph - N/A   Overcast
12:41 AM 24.8 °F 20.5 °F 17.6 °F 74% 30.13 in 4.0 mi East 3.5 mph - N/A   Overcast
1:02 AM 23.0 °F 18.4 °F 19.4 °F 86% 30.13 in 2.5 mi ENE 3.5 mph - N/A   Overcast
1:24 AM 23.0 °F - 19.4 °F 86% 30.12 in 1.2 mi Calm Calm - N/A   Overcast
1:45 AM 23.0 °F 18.4 °F 19.4 °F 86% 30.11 in 0.8 mi ENE 3.5 mph - N/A   Overcast
2:06 AM 21.2 °F 14.9 °F 19.4 °F 93% 30.11 in 1.0 mi ENE 4.6 mph - N/A   Overcast
2:28 AM 21.2 °F 16.4 °F 19.4 °F 93% 30.10 in 1.2 mi ENE 3.5 mph - N/A   Overcast
2:49 AM 21.2 °F 14.9 °F 19.4 °F 93% 30.09 in 1.0 mi ENE 4.6 mph - N/A   Overcast
3:10 AM 21.2 °F 13.6 °F 19.4 °F 93% 30.08 in 0.8 mi ENE 5.8 mph - N/A   Overcast
3:32 AM 21.2 °F - 19.4 °F 93% 30.08 in 1.0 mi Calm Calm - N/A   Overcast
3:53 AM 21.2 °F 16.4 °F 19.4 °F 93% 30.08 in 1.2 mi East 3.5 mph - N/A   Overcast
4:14 AM 21.2 °F 16.4 °F 17.6 °F 86% 30.08 in 1.5 mi NE 3.5 mph - N/A   Overcast
4:36 AM 21.2 °F 13.6 °F 17.6 °F 86% 30.08 in 1.2 mi NE 5.8 mph - N/A   Overcast
4:57 AM 21.2 °F 16.4 °F 17.6 °F 86% 30.10 in 1.8 mi NE 3.5 mph - N/A   Overcast
5:18 AM 21.2 °F 16.4 °F 17.6 °F 86% 30.11 in 1.8 mi NE 3.5 mph - N/A   Overcast
5:40 AM 21.2 °F 16.4 °F 17.6 °F 86% 30.12 in 2.0 mi NNE 3.5 mph - N/A   Overcast
6:01 AM 21.2 °F 14.9 °F 17.6 °F 86% 30.13 in 2.0 mi NE 4.6 mph - N/A   Overcast
6:22 AM 21.2 °F 16.4 °F 17.6 °F 86% 30.14 in 1.8 mi ENE 3.5 mph - N/A   Overcast
6:44 AM 21.2 °F - 17.6 °F 86% 30.16 in 1.8 mi Calm Calm - N/A   Overcast
7:05 AM 21.2 °F 14.9 °F 17.6 °F 86% 30.17 in 3.0 mi NNE 4.6 mph - N/A   Overcast
7:26 AM 21.2 °F 14.9 °F 15.8 °F 80% 30.19 in 2.5 mi North 4.6 mph - N/A   Overcast
8:30 AM 19.4 °F - 17.6 °F 93% 30.24 in 0.5 mi Calm Calm - N/A   Overcast
8:51 AM 19.4 °F 11.5 °F 15.8 °F 86% 30.26 in 1.0 mi NNW 5.8 mph - N/A   Overcast
9:12 AM 21.2 °F 11.7 °F 14.0 °F 74% 30.28 in 10.0 mi NNW 8.1 mph - N/A   Scattered Clouds
9:34 AM 21.2 °F 14.9 °F 12.2 °F 68% 30.30 in 10.0 mi NNW 4.6 mph - N/A   Clear
9:55 AM 21.2 °F - 12.2 °F 68% 30.32 in 10.0 mi Calm Calm - N/A   Clear
10:16 AM 21.2 °F 10.9 °F 10.4 °F 63% 30.33 in 10.0 mi NNW 9.2 mph - N/A   Clear
10:37 AM 21.2 °F 13.6 °F 10.4 °F 63% 30.34 in 10.0 mi NW 5.8 mph - N/A   Scattered Clouds
10:59 AM 23.0 °F 12.4 °F 10.4 °F 59% 30.34 in 10.0 mi NW 10.4 mph - N/A   Scattered Clouds
11:19 AM 23.0 °F 13.9 °F 10.4 °F 59% 30.35 in 10.0 mi WNW 8.1 mph 16.1 mph N/A   Clear
11:41 AM 23.0 °F 14.7 °F 10.4 °F 59% 30.35 in 10.0 mi NNW 6.9 mph - N/A   Mostly Cloudy
11:58 AM 24.8 °F 16.1 °F 10.4 °F 54% 30.35 in 10.0 mi NW 8.1 mph - N/A   Mostly Cloudy
12:55 PM 26.6 °F 17.5 °F 10.4 °F 51% 30.36 in 10.0 mi NW 9.2 mph - N/A   Mostly Cloudy
1:16 PM 26.6 °F 19.1 °F 8.6 °F 47% 30.36 in 10.0 mi NNW 6.9 mph - N/A   Overcast
1:59 PM 26.6 °F 16.2 °F 5.0 °F 40% 30.37 in 10.0 mi WNW 11.5 mph 23.0 mph N/A   Overcast
2:20 PM 26.6 °F 16.2 °F 5.0 °F 40% 30.38 in 10.0 mi NNW 11.5 mph 20.7 mph N/A   Mostly Cloudy
2:41 PM 26.6 °F 19.1 °F 3.2 °F 37% 30.38 in 10.0 mi NW 6.9 mph 18.4 mph N/A   Mostly Cloudy
3:02 PM 26.6 °F 17.5 °F 3.2 °F 37% 30.39 in 10.0 mi WNW 9.2 mph 18.4 mph N/A   Mostly Cloudy
3:23 PM 28.4 °F 21.2 °F 1.4 °F 31% 30.40 in 10.0 mi NNW 6.9 mph 18.4 mph N/A   Scattered Clouds
3:45 PM 26.6 °F 17.5 °F 1.4 °F 34% 30.42 in 10.0 mi NW 9.2 mph - N/A   Scattered Clouds
4:06 PM 26.6 °F 17.5 °F -0.4 °F 31% 30.43 in 10.0 mi WNW 9.2 mph - N/A   Clear
4:27 PM 26.6 °F 20.0 °F -0.4 °F 31% 30.44 in 10.0 mi NNW 5.8 mph - N/A   Clear
4:48 PM 26.6 °F 20.0 °F -0.4 °F 31% 30.45 in 10.0 mi NW 5.8 mph - N/A   Clear
5:10 PM 26.6 °F 20.0 °F -0.4 °F 31% 30.46 in 10.0 mi NW 5.8 mph - N/A   Clear
5:31 PM 24.8 °F 17.9 °F -0.4 °F 34% 30.47 in 10.0 mi WNW 5.8 mph - N/A   Clear
5:52 PM 24.8 °F 20.5 °F -0.4 °F 34% 30.48 in 10.0 mi WNW 3.5 mph - N/A   Clear
6:13 PM 23.0 °F 15.8 °F -2.2 °F 33% 30.48 in 10.0 mi WNW 5.8 mph - N/A   Clear
6:34 PM 23.0 °F 15.8 °F -2.2 °F 33% 30.50 in 10.0 mi WNW 5.8 mph - N/A   Clear
6:56 PM 23.0 °F 17.0 °F -2.2 °F 33% 30.50 in 10.0 mi WNW 4.6 mph - N/A   Clear
7:17 PM 23.0 °F 18.4 °F -0.4 °F 36% 30.51 in 10.0 mi WNW 3.5 mph - N/A   Clear
7:38 PM 23.0 °F 15.8 °F -0.4 °F 36% 30.51 in 10.0 mi WNW 5.8 mph - N/A   Clear
7:59 PM 23.0 °F - -0.4 °F 36% 30.52 in 10.0 mi Calm Calm - N/A   Clear
8:21 PM 21.2 °F - -0.4 °F 39% 30.52 in 10.0 mi Calm Calm - N/A   Clear
8:42 PM 19.4 °F 12.8 °F 1.4 °F 46% 30.52 in 10.0 mi West 4.6 mph - N/A   Clear
9:24 PM 17.6 °F - 3.2 °F 53% 30.53 in 10.0 mi Calm Calm - N/A   Clear
9:46 PM 17.6 °F - 3.2 °F 53% 30.53 in 10.0 mi Calm Calm - N/A   Clear
10:07 PM 17.6 °F 12.3 °F 1.4 °F 49% 30.53 in 10.0 mi West 3.5 mph - N/A   Clear
10:28 PM 17.6 °F - 3.2 °F 53% 30.53 in 10.0 mi Calm Calm - N/A   Clear
10:50 PM 17.6 °F - 3.2 °F 53% 30.53 in 10.0 mi Calm Calm - N/A   Clear
11:11 PM 17.6 °F 12.3 °F 1.4 °F 49% 30.53 in 10.0 mi West 3.5 mph - N/A   Clear
11:32 PM 14.0 °F 6.5 °F 1.4 °F 57% 30.52 in 10.0 mi WNW 4.6 mph - N/A   Clear
11:53 PM 17.6 °F 12.3 °F 1.4 °F 49% 30.53 in 10.0 mi West 3.5 mph - N/A   Clear